sat.trackr.live / text

‹ back to catalog

STARLINK-31705

NORAD 59382 · 2024-062J

PAYLOAD ACTIVE UNKNOWN

§ Identity

Operator
Country
US
Launch date
2024-04-02
Launch site
AFWTR
Launch vehicle
Mass (kg)
RCS (m²)

Purposes: comms

External: N2YO · Heavens-Above · Gunter

§ Orbital elements

Epoch: 2026-09-20T02:38:27.217536Z

Period
93.85 min
Inclination
53.1599°
Eccentricity
0.0000717
Mean motion
15.34386839 rev/d
Perigee alt
462.3 km
Apogee alt
463.2 km
Semi-major
6,840.9 km
B*
2.1841e-5
RAAN
69.3656°
Arg perigee
75.6517°
Mean anomaly
284.4565°
Rev number
13,944

§ Raw data

STARLINK-317051 59382U 24062J   26263.11003724  .00000362  00000+0  21841-4 0  99982 59382  53.1599  69.3656 0000717  75.6517 284.4565 15.34386839139447

JSON: /api/v1/satellites/59382 · /tle

For live sub-satellite position, see the globe view (requires WebGL).

§ Visibility from observer

Set your observer location to see the next 7 days of passes ≥ 10°. The values pass through the URL so the page stays shareable.

No JS? Fill the form by hand. The geolocation button needs JavaScript.